Weather History for Pensacola NAS, FL

Change the Weather History Date:

Saturday, September 21, 2013

  Actual Average Record
Temperature  
Mean Temperature 78 °F -  
Max Temperature 84 °F 83 °F 97 °F (1997)
Min Temperature 73 °F 67 °F 57 °F (2006)
Cooling Degree Days 12    
Growing Degree Days 28 (Base 50)    
Moisture  
Dew Point 75 °F    
Average Humidity 90    
Maximum Humidity 100    
Minimum Humidity 76    
Precipitation  
Precipitation 0.58 in - - ()
Sea Level Pressure  
Sea Level Pressure 29.79 in    
Wind  
Wind Speed 9 mph (WSW)    
Max Wind Speed 22 mph    
Max Gust Speed 31 mph    
Visibility 8 miles    
Events Rain , Thunderstorm    
Averages and records for this station are not official NWS values.
T = Trace of Precipitation, MM = Missing Value Source: NWS Daily Summary

Daily Weather History Graph

Daily Weather History Graph

Search for Another Location

Airport:

Trip Planner

Search our weather history database for the weather conditions in past years. The results will help you decide how hot, cold, wet, or windy it might be!

Date:

Astronomy

Sep. 21, 2013 Rise Set
Actual Time 6:37 AM CDT 6:46 PM CDT
Civil Twilight 6:13 AM CDT 7:10 PM CDT
Nautical Twilight 5:45 AM CDT 7:38 PM CDT
Astronomical Twilight 5:17 AM CDT 8:06 PM CDT
Moon 8:11 PM CDT (9/21) 8:42 AM CDT (9/21)
Length of Visible Light 12h 57m
Length of Day
12h 09m
Waning Gibbous, 94% of the Moon is Illuminated
Sep 21
Waning Gibbous
Sep 26
Last Quarter
Oct 4
New
Oct 11
First Quarter
Oct 18
Full

Hourly Weather History & Observations

Time (CDT) Temp. Heat Index Dew Point Humidity Pressure Visibility Wind Dir Wind Speed Gust Speed Precip Events Conditions
12:38 AM 82.4 °F 89.5 °F 75.2 °F 79% 29.85 in 10.0 mi South 12.7 mph - N/A   Mostly Cloudy
12:45 AM 82.4 °F 89.5 °F 75.2 °F 79% 29.85 in 10.0 mi South 12.7 mph - N/A   Scattered Clouds
12:56 AM 82.0 °F 87.9 °F 73.9 °F 76% 29.85 in 10.0 mi South 13.8 mph - N/A   Scattered Clouds
1:56 AM 81.0 °F 86.7 °F 75.0 °F 82% 29.83 in 10.0 mi South 12.7 mph - N/A   Partly Cloudy
2:56 AM 81.0 °F 86.7 °F 75.0 °F 82% 29.82 in 10.0 mi South 12.7 mph - N/A   Partly Cloudy
3:46 AM 82.4 °F 89.5 °F 75.2 °F 79% 29.80 in 10.0 mi South 13.8 mph - N/A   Mostly Cloudy
3:56 AM 81.0 °F 86.7 °F 75.0 °F 82% 29.81 in 10.0 mi South 15.0 mph - N/A   Mostly Cloudy
4:08 AM 80.6 °F 86.2 °F 75.2 °F 84% 29.80 in 10.0 mi South 15.0 mph - N/A   Scattered Clouds
4:56 AM 79.0 °F - 75.0 °F 88% 29.80 in 7.0 mi South 12.7 mph 25.3 mph 0.02 in Rain Light Rain
5:45 AM 80.6 °F 86.2 °F 75.2 °F 84% 29.80 in 10.0 mi SW 21.9 mph 31.1 mph 0.00 in Thunderstorm Thunderstorm
5:56 AM 77.0 °F - 73.0 °F 88% 29.81 in 5.0 mi SW 18.4 mph 28.8 mph 0.03 in Rain , Thunderstorm Light Thunderstorms and Rain
6:15 AM 77.0 °F - 73.4 °F 89% 29.80 in 10.0 mi SSW 8.1 mph - 0.01 in   Scattered Clouds
6:56 AM 78.1 °F - 73.9 °F 87% 29.81 in 10.0 mi SSW 8.1 mph - 0.01 in   Scattered Clouds
7:56 AM 80.1 °F 85.8 °F 77.0 °F 90% 29.81 in 10.0 mi SW 5.8 mph - N/A   Scattered Clouds
8:56 AM 78.1 °F - 73.9 °F 87% 29.82 in 10.0 mi West 5.8 mph - 0.00 in   Scattered Clouds
9:04 AM 78.8 °F - 75.2 °F 89% 29.81 in 10.0 mi SW 5.8 mph - N/A   Overcast
9:08 AM 78.8 °F - 75.2 °F 89% 29.81 in 4.0 mi WSW 6.9 mph - 0.00 in Rain Rain
9:17 AM 78.8 °F - 75.2 °F 89% 29.81 in 6.0 mi Calm Calm - 0.00 in Rain Light Rain
9:27 AM 78.8 °F - 75.2 °F 89% 29.81 in 10.0 mi Calm Calm - 0.00 in   Overcast
9:56 AM 79.0 °F - 75.9 °F 90% 29.83 in 10.0 mi Calm Calm - 0.00 in   Overcast
10:56 AM 82.0 °F 90.2 °F 77.0 °F 85% 29.83 in 10.0 mi SSW 4.6 mph - N/A   Overcast
11:56 AM 82.9 °F 91.8 °F 77.0 °F 82% 29.80 in 10.0 mi SW 8.1 mph - N/A   Overcast
12:35 PM 80.6 °F 86.2 °F 75.2 °F 84% 29.79 in 1.8 mi South 12.7 mph 23.0 mph 0.06 in Rain Rain
12:38 PM 80.6 °F 86.2 °F 75.2 °F 84% 29.79 in 2.5 mi SSW 10.4 mph 23.0 mph 0.06 in Rain Rain
12:40 PM 80.6 °F 87.1 °F 77.0 °F 89% 29.79 in 4.0 mi SSW 10.4 mph 23.0 mph 0.06 in Rain Rain
12:45 PM 80.6 °F 86.2 °F 75.2 °F 84% 29.79 in 7.0 mi SW 5.8 mph - 0.06 in   Overcast
12:56 PM 81.0 °F 86.7 °F 75.0 °F 82% 29.79 in 7.0 mi West 4.6 mph - 0.06 in   Overcast
1:03 PM 80.6 °F 85.4 °F 73.4 °F 79% 29.78 in 10.0 mi NW 6.9 mph - N/A Thunderstorm Thunderstorm
1:12 PM 75.2 °F - 73.4 °F 94% 29.79 in 10.0 mi WNW 11.5 mph 19.6 mph 0.00 in Rain , Thunderstorm Light Thunderstorms and Rain
1:19 PM 75.2 °F - 73.4 °F 94% 29.80 in 1.0 mi WNW 11.5 mph 19.6 mph 0.08 in Rain , Thunderstorm Heavy Thunderstorms and Rain
1:30 PM 73.4 °F - 73.4 °F 100% 29.78 in 3.0 mi NW 5.8 mph - 0.20 in Rain Rain
1:39 PM 75.2 °F - 73.4 °F 94% 29.78 in 10.0 mi NW 6.9 mph - 0.20 in Rain Light Rain
1:56 PM 75.0 °F - 73.9 °F 96% 29.79 in 10.0 mi Variable 4.6 mph - 0.20 in Rain Light Rain
2:03 PM 75.2 °F - 73.4 °F 94% 29.78 in 1.0 mi Variable 3.5 mph - 0.02 in Rain Heavy Rain
2:13 PM 75.2 °F - 73.4 °F 94% 29.78 in 1.8 mi West 5.8 mph - 0.08 in Rain Heavy Rain
2:22 PM 73.4 °F - 73.4 °F 100% 29.78 in 1.8 mi WSW 4.6 mph - 0.22 in Rain Heavy Rain
2:24 PM 73.4 °F - 73.4 °F 100% 29.77 in 1.5 mi West 6.9 mph - 0.23 in Rain Heavy Rain
2:36 PM 75.2 °F - 73.4 °F 94% 29.77 in 5.0 mi WSW 4.6 mph - 0.25 in Rain Light Rain
2:56 PM 75.0 °F - 75.0 °F 100% 29.77 in 10.0 mi West 3.5 mph - 0.25 in Rain Light Rain
3:39 PM 77.0 °F - 75.2 °F 94% 29.76 in 6.0 mi Calm Calm - 0.00 in Rain Light Rain
3:56 PM 77.0 °F - 75.9 °F 96% 29.76 in 7.0 mi NW 3.5 mph - 0.01 in Rain Light Rain
4:56 PM 77.0 °F - 75.9 °F 96% 29.74 in 6.0 mi Calm Calm - 0.00 in Rain Light Rain
5:25 PM 77.0 °F - 75.2 °F 94% 29.73 in 10.0 mi North 3.5 mph - 0.00 in   Overcast
5:29 PM 77.0 °F - 75.2 °F 94% 29.73 in 10.0 mi NNW 3.5 mph - 0.00 in   Overcast
5:36 PM 77.0 °F - 75.2 °F 94% 29.73 in 10.0 mi NNE 3.5 mph - 0.00 in   Mostly Cloudy
5:42 PM 77.0 °F - 75.2 °F 94% 29.73 in 10.0 mi North 3.5 mph - 0.00 in   Mostly Cloudy
5:49 PM 77.0 °F - 75.2 °F 94% 29.73 in 10.0 mi North 4.6 mph - 0.00 in Rain Light Rain
5:56 PM 77.0 °F - 75.9 °F 96% 29.74 in 10.0 mi NNE 4.6 mph - 0.00 in Rain Light Rain
6:56 PM 75.9 °F - 75.0 °F 97% 29.75 in 10.0 mi Calm Calm - 0.00 in Rain Light Rain
7:56 PM 75.9 °F - 75.0 °F 97% 29.76 in 10.0 mi Calm Calm - 0.00 in Rain Light Rain
8:56 PM 75.0 °F - 75.0 °F 100% 29.77 in 10.0 mi Calm Calm - 0.00 in   Mostly Cloudy
9:56 PM 75.0 °F - 75.0 °F 100% 29.77 in 10.0 mi Calm Calm - 0.00 in   Mostly Cloudy
10:56 PM 75.0 °F - 75.0 °F 100% 29.77 in 10.0 mi Calm Calm - 0.00 in   Mostly Cloudy
11:56 PM 75.0 °F - 75.0 °F 100% 29.76 in 10.0 mi Calm Calm - 0.00 in   Partly Cloudy